Location: Newark
(60.5925°N, 45.5911°E)
Time: 10:03:27
(UTC+00:00)

Envisat - Visible Passes

Search period start: 16 September 2019 00:00
Search period end: 26 September 2019 00:00
Orbit: 764 x 766 km, 98.1° (Epoch: 16 September)

Date Brightness Start Highest point End Pass type
(mag) Time Alt. Az. Time Alt. Az. Time Alt. Az.
16 Sep 6.2 17:00:20 10° WSW 17:02:26 12° WNW 17:04:32 10° NW visible
17 Sep 5.8 16:21:12 10° SW 16:25:03 21° W 16:28:55 10° NW visible
18 Sep 4.9 15:43:12 10° SSW 15:47:51 35° W 15:52:33 10° NNW visible
19 Sep 6.1 16:48:10 10° WSW 16:50:58 15° W 16:53:47 10° NW visible
20 Sep 5.6 16:09:30 10° SW 16:13:39 25° W 16:17:49 10° NNW visible
22 Sep 5.9 16:36:13 10° WSW 16:39:31 17° W 16:42:52 10° NW visible
23 Sep 5.3 15:57:52 10° SSW 16:02:15 29° W 16:06:41 10° NNW visible
24 Sep 6.3 17:03:47 10° W 17:05:30 12° WNW 17:07:15 10° WNW visible
25 Sep 5.8 16:24:23 10° SW 16:28:06 20° W 16:31:50 10° NW visible
